Regional Weather Roundup
Issued by NWS

Home | Current Version | Previous Version | Graphics & Text | Print | Product List | Glossary On
Versions: 1 2 3 4 5 6 7 8 9 10 11 12 13 14 15 16 17 18 19 20 21 22 23 24 25 26 27 28 29 30 31 32 33 34 35 36 37 38 39 40 41 42 43 44 45 46 47 48 49 50
191
ASUS43 KLMK 031402
RWRKY
KENTUCKY REGIONAL WEATHER ROUNDUP
NATIONAL WEATHER SERVICE LOUISVILLE KY
900 AM EST SAT DEC 03 2016

NOTE "FAIR" INDICATES FEW OR NO CLOUDS BELOW 12,000 FEET
WITH NO SIGNIFICANT WEATHER AND/OR OBSTRUCTIONS TO VISIBILITY.

KYZ001>023-026-027-061>063-070>075-031500-
WESTERN AND SOUTH CENTRAL KENTUCKY

CITY           SKY/WX    TMP DP  RH WIND       PRES   REMARKS
PADUCAH        CLOUDY    37  32  82 E5        30.35F WCI  33
HENDERSON      MOSUNNY   30  27  86 CALM      30.38F
OWENSBORO      CLOUDY    32  31  96 CALM      30.40S
HOPKINSVILLE   NOT AVBL
BOWLING GREEN  CLOUDY    33  30  88 CALM      30.39R
GLASGOW        NOT AVBL
$$

KYZ024-025-028>034-038-045-046-053-031500-
NORTH CENTRAL KENTUCKY

CITY           SKY/WX    TMP DP  RH WIND       PRES   REMARKS
LOUISVILLE/SDF CLOUDY    42  29  59 CALM      30.39R
LOUISVILLE/LOU CLOUDY    41  31  67 NW3       30.40R
FORT KNOX      CLOUDY    39  31  72 NW2       30.37R
$$

KYZ035>037-039>044-047>052-055>060-089>105-031500-
NORTHEAST KENTUCKY

CITY           SKY/WX    TMP DP  RH WIND       PRES   REMARKS
LEXINGTON      CLOUDY    39  32  76 NW5       30.37R
COVINGTON      CLOUDY    37  34  89 CALM      30.36R
FRANKFORT      CLOUDY    39  31  72 CALM      30.37R
$$

KYZ054-064>069-076>088-106>120-031500-
SOUTHEAST KENTUCKY

CITY           SKY/WX    TMP DP  RH WIND       PRES   REMARKS
JACKSON        CLOUDY    37  31  78 CALM      30.34R
LONDON         CLOUDY    35  30  82 CALM      30.35S
SOMERSET       CLOUDY    32  32 100 CALM      30.39R
MIDDLESBORO    CLOUDY    33  32  95 CALM      30.36S
MONTICELLO     CLOUDY    30  29  96 MISG      30.38S
$$





USA.gov is the U.S. government's official web portal to all federal, state and local government web resources and services.